N5GAH-13 Weather Reports


time (UTC)temp
C
wind
direction
speed
KPH
gust
KPH
rain 1hr
cm
rain 24hr
cm
rain mn
cm
humidity
%
barometer
mb
20260505212330 26 249 22.5 51.5 0.00 0.00 0.00 26 1013.8
20260505205330 25 260 17.7 32.2 0.00 0.00 0.00 28 1013.9
20260505202330 25 254 16.1 33.8 0.00 0.00 0.00 29 1014.3
20260505195330 26 252 19.3 33.8 0.00 0.00 0.00 29 1014.3
20260505192330 26 238 16.1 29.0 0.00 0.00 0.00 27 1014.1
20260505182330 26 241 11.3 17.7 0.00 0.00 0.00 29 1014.6
20260505175330 26 270 6.4 12.9 0.00 0.00 0.00 30 1014.7
20260505172330 25 267 8.0 19.3 0.00 0.00 0.00 31 1014.8
20260505165330 24 291 8.0 16.1 0.00 0.00 0.00 31 1014.9
20260505162330 24 287 8.0 16.1 0.00 0.00 0.00 33 1014.6
20260505152329 22 265 8.0 16.1 0.00 0.00 0.00 35 1014.6
20260505122330 18 258 4.8 9.7 0.00 0.00 0.00 42 1012.6
20260505115330 18 239 4.8 11.3 0.00 0.25 0.00 41 1012.4
20260505112330 19 233 6.4 12.9 0.00 0.25 0.00 40 1012.2
20260505092329 18 230 8.0 12.9 0.00 0.25 0.00 44 1012.0
20260505085329 20 226 8.0 12.9 0.00 0.25 0.00 40 1011.9
20260505082330 20 236 11.3 19.3 0.00 0.25 0.00 36 1012.0
20260505075330 20 245 12.9 22.5 0.00 0.25 0.00 36 1011.7
20260505072330 20 237 8.0 12.9 0.00 0.25 0.00 39 1011.9
20260505065330 20 247 6.4 12.9 0.00 0.25 0.00 38 1012.5
20260505062330 21 232 9.7 16.1 0.00 0.25 0.00 36 1012.5
20260505052330 21 243 12.9 22.5 0.00 0.25 0.00 33 1012.7
20260505035330 22 233 8.0 12.9 0.00 0.25 0.15 29 1012.7
20260505025330 24 240 9.7 17.7 0.00 0.25 0.15 25 1012.4
20260505022330 25 245 12.9 17.7 0.00 0.25 0.15 23 1012.2